Wetterdaten: aktuell Samstag, 20.10.2018 22:25
Datum Zeit Temp. A. Aussen2m Boden Feuchte A. Feuchte 2 Luftdruck Regen Wind Richtung Richtung Sonnenschein
20.10.2018 22:25 8,5 C 16,2 C 10,8 C 74 % 79 % 1028,9 hPa 0,0 l/m 0,0 km/h (0 Bft) NO 35 0 min
20.10.2018 22:20 8,7 C 16,2 C 10,8 C 73 % 79 % 1028,9 hPa 0,0 l/m 0,0 km/h (0 Bft) NO 35 0 min
20.10.2018 22:15 8,8 C 16,2 C 10,8 C 73 % 79 % 1028,9 hPa 0,0 l/m 0,0 km/h (0 Bft) NO 35 0 min
20.10.2018 22:10 9,0 C 16,2 C 10,8 C 73 % 79 % 1028,9 hPa 0,0 l/m 0,0 km/h (0 Bft) NO 35 0 min
20.10.2018 22:05 9,3 C 16,2 C 10,8 C 73 % 79 % 1028,9 hPa 0,0 l/m 0,0 km/h (0 Bft) NO 35 0 min
20.10.2018 22:00 9,4 C 16,2 C 10,8 C 73 % 79 % 1027,8 hPa 0,0 l/m 0,0 km/h (0 Bft) NO 35 0 min
20.10.2018 21:55 9,5 C 16,2 C 10,8 C 72 % 79 % 1027,8 hPa 0,0 l/m 0,0 km/h (0 Bft) N-NO 30 0 min
20.10.2018 21:50 9,6 C 16,2 C 10,8 C 72 % 79 % 1027,8 hPa 0,0 l/m 0,0 km/h (0 Bft) N 10 0 min
20.10.2018 21:45 9,7 C 16,2 C 10,8 C 71 % 79 % 1027,8 hPa 0,0 l/m 0,0 km/h (0 Bft) NO 45 0 min
20.10.2018 21:40 9,8 C 16,2 C 10,8 C 71 % 79 % 1027,8 hPa 0,0 l/m 0,0 km/h (0 Bft) N-NO 30 0 min
20.10.2018 21:35 10,0 C 16,2 C 10,8 C 70 % 79 % 1027,8 hPa 0,0 l/m 0,0 km/h (0 Bft) O 80 0 min
20.10.2018 21:30 10,1 C 16,2 C 10,8 C 70 % 79 % 1027,8 hPa 0,0 l/m 0,0 km/h (0 Bft) N-NO 25 0 min
20.10.2018 21:25 10,2 C 16,2 C 10,8 C 70 % 79 % 1027,8 hPa 0,0 l/m 0,0 km/h (0 Bft) N-NO 30 0 min
20.10.2018 21:20 10,2 C 16,2 C 10,8 C 70 % 79 % 1027,8 hPa 0,0 l/m 0,0 km/h (0 Bft) S 185 0 min
20.10.2018 21:15 10,3 C 16,2 C 10,8 C 70 % 79 % 1027,8 hPa 0,0 l/m 0,0 km/h (0 Bft) S 185 0 min
20.10.2018 21:10 10,2 C 16,2 C 10,8 C 69 % 79 % 1027,8 hPa 0,0 l/m 0,0 km/h (0 Bft) SO 140 0 min
20.10.2018 21:05 10,2 C 16,2 C 10,8 C 69 % 79 % 1027,8 hPa 0,0 l/m 0,0 km/h (0 Bft) O-SO 115 0 min
20.10.2018 21:00 10,2 C 16,2 C 10,8 C 68 % 79 % 1027,8 hPa 0,0 l/m 0,0 km/h (0 Bft) N-NO 15 0 min
20.10.2018 20:55 10,3 C 16,2 C 10,8 C 68 % 79 % 1027,8 hPa 0,0 l/m 0,0 km/h (0 Bft) N-NO 15 0 min
20.10.2018 20:50 10,4 C 16,2 C 10,8 C 67 % 79 % 1027,8 hPa 0,0 l/m 0,0 km/h (0 Bft) N-NO 30 0 min
20.10.2018 20:45 10,5 C 16,2 C 10,8 C 67 % 79 % 1027,8 hPa 0,0 l/m 0,0 km/h (0 Bft) NO 40 0 min
20.10.2018 20:40 10,7 C 16,2 C 10,8 C 66 % 79 % 1027,8 hPa 0,0 l/m 0,0 km/h (0 Bft) NO 35 0 min
20.10.2018 20:35 10,7 C 16,2 C 10,8 C 66 % 79 % 1027,8 hPa 0,0 l/m 3,6 km/h (1 Bft) NW 315 0 min
20.10.2018 20:30 11,1 C 16,2 C 10,8 C 65 % 79 % 1027,8 hPa 0,0 l/m 0,0 km/h (0 Bft) N-NO 30 0 min
20.10.2018 20:25 11,1 C 16,2 C 10,8 C 65 % 79 % 1027,8 hPa 0,0 l/m 0,0 km/h (0 Bft) O-NO 65 0 min
20.10.2018 20:20 11,1 C 16,2 C 10,8 C 65 % 79 % 1027,8 hPa 0,0 l/m 0,0 km/h (0 Bft) SO 125 0 min
20.10.2018 20:15 11,3 C 16,2 C 10,8 C 64 % 79 % 1027,8 hPa 0,0 l/m 0,0 km/h (0 Bft) O-SO 110 0 min
20.10.2018 20:10 11,4 C 16,2 C 10,8 C 64 % 79 % 1027,8 hPa 0,0 l/m 0,0 km/h (0 Bft) O-SO 110 0 min
20.10.2018 20:05 11,6 C 16,2 C 10,8 C 62 % 79 % 1027,8 hPa 0,0 l/m 0,0 km/h (0 Bft) O-SO 120 0 min
20.10.2018 20:00 11,8 C 16,2 C 10,8 C 62 % 79 % 1028,8 hPa 0,0 l/m 0,0 km/h (0 Bft) O-SO 120 0 min
20.10.2018 19:55 12,1 C 16,2 C 10,8 C 61 % 79 % 1028,8 hPa 0,0 l/m 0,0 km/h (0 Bft) SO 130 0 min
20.10.2018 19:50 12,3 C 16,2 C 10,8 C 61 % 79 % 1028,8 hPa 0,0 l/m 0,0 km/h (0 Bft) N-NO 25 0 min
20.10.2018 19:45 12,4 C 16,2 C 10,8 C 61 % 79 % 1027,8 hPa 0,0 l/m 0,0 km/h (0 Bft) N-NO 25 0 min
20.10.2018 19:40 12,4 C 16,2 C 10,8 C 60 % 79 % 1027,8 hPa 0,0 l/m 0,0 km/h (0 Bft) N-NO 25 0 min
20.10.2018 19:35 12,5 C 16,2 C 10,8 C 60 % 79 % 1027,8 hPa 0,0 l/m 0,0 km/h (0 Bft) N-NO 30 0 min
20.10.2018 19:30 12,6 C 16,2 C 10,8 C 60 % 79 % 1027,8 hPa 0,0 l/m 0,6 km/h (0 Bft) N-NO 15 0 min
20.10.2018 19:25 12,7 C 16,2 C 10,8 C 59 % 79 % 1027,8 hPa 0,0 l/m 3,6 km/h (1 Bft) N-NO 20 0 min
20.10.2018 19:20 12,6 C 16,2 C 10,8 C 59 % 79 % 1027,8 hPa 0,0 l/m 4,2 km/h (1 Bft) N 10 0 min
20.10.2018 19:15 12,8 C 16,2 C 10,8 C 58 % 79 % 1027,8 hPa 0,0 l/m 0,6 km/h (0 Bft) N-NO 15 0 min
20.10.2018 19:10 12,9 C 16,2 C 10,8 C 58 % 79 % 1027,8 hPa 0,0 l/m 2,4 km/h (1 Bft) NO 55 0 min
20.10.2018 19:05 12,9 C 16,2 C 10,8 C 58 % 79 % 1027,8 hPa 0,0 l/m 2,4 km/h (1 Bft) N-NO 15 0 min
20.10.2018 19:00 13,0 C 16,2 C 10,8 C 57 % 79 % 1027,8 hPa 0,0 l/m 4,2 km/h (1 Bft) N-NO 20 0 min
20.10.2018 18:55 13,1 C 16,2 C 10,8 C 57 % 79 % 1027,8 hPa 0,0 l/m 2,4 km/h (1 Bft) NO 50 0 min
20.10.2018 18:50 13,2 C 16,2 C 10,8 C 56 % 79 % 1027,8 hPa 0,0 l/m 3,0 km/h (1 Bft) NO 45 0 min
20.10.2018 18:45 13,4 C 16,2 C 10,8 C 56 % 79 % 1026,8 hPa 0,0 l/m 4,8 km/h (1 Bft) N-NO 25 0 min
20.10.2018 18:40 13,5 C 16,2 C 10,8 C 56 % 79 % 1026,8 hPa 0,0 l/m 7,3 km/h (2 Bft) N-NO 20 0 min
20.10.2018 18:35 13,7 C 16,2 C 10,8 C 55 % 79 % 1026,8 hPa 0,0 l/m 3,6 km/h (1 Bft) N-NO 15 0 min
20.10.2018 18:30 13,7 C 16,2 C 10,8 C 55 % 79 % 1027,8 hPa 0,0 l/m 6,7 km/h (2 Bft) N 350 0 min
20.10.2018 18:25 13,9 C 16,2 C 10,8 C 54 % 79 % 1027,8 hPa 0,0 l/m 6,1 km/h (2 Bft) N 350 0 min
20.10.2018 18:20 14,1 C 16,2 C 10,8 C 54 % 79 % 1027,8 hPa 0,0 l/m 8,5 km/h (2 Bft) N-NO 20 0 min
20.10.2018 18:15 14,2 C 16,2 C 10,8 C 54 % 79 % 1028,8 hPa 0,0 l/m 10,3 km/h (2 Bft) N-NO 15 0 min
20.10.2018 18:10 14,4 C 16,2 C 10,8 C 53 % 79 % 1028,8 hPa 0,0 l/m 9,7 km/h (2 Bft) N 10 0 min
20.10.2018 18:05 14,5 C 16,2 C 10,8 C 52 % 79 % 1028,8 hPa 0,0 l/m 8,5 km/h (2 Bft) N 5 0 min
20.10.2018 18:00 14,8 C 16,2 C 10,8 C 52 % 79 % 1027,8 hPa 0,0 l/m 8,5 km/h (2 Bft) N 0 0 min
20.10.2018 17:55 14,8 C 16,2 C 10,8 C 51 % 79 % 1027,8 hPa 0,0 l/m 9,7 km/h (2 Bft) N-NW 340 0 min
20.10.2018 17:50 15,0 C 16,2 C 10,8 C 51 % 79 % 1027,8 hPa 0,0 l/m 16,3 km/h (3 Bft) N-NO 15 0 min
20.10.2018 17:45 15,3 C 16,2 C 10,8 C 50 % 79 % 1027,8 hPa 0,0 l/m 6,1 km/h (2 Bft) N-NW 340 0 min
20.10.2018 17:40 15,5 C 16,2 C 10,8 C 50 % 79 % 1027,8 hPa 0,0 l/m 4,8 km/h (1 Bft) N 5 0 min
20.10.2018 17:35 15,4 C 16,2 C 10,8 C 50 % 79 % 1027,8 hPa 0,0 l/m 4,2 km/h (1 Bft) NW 310 0 min
20.10.2018 17:30 15,3 C 16,2 C 10,8 C 50 % 79 % 1026,8 hPa 0,0 l/m 7,9 km/h (2 Bft) N 350 0 min
20.10.2018 17:25 15,4 C 16,2 C 10,8 C 50 % 79 % 1026,8 hPa 0,0 l/m 8,5 km/h (2 Bft) N 350 0 min
20.10.2018 17:20 15,5 C 16,2 C 10,8 C 50 % 79 % 1026,8 hPa 0,0 l/m 9,7 km/h (2 Bft) NO 50 0 min
20.10.2018 17:15 15,4 C 16,2 C 10,8 C 50 % 79 % 1027,8 hPa 0,0 l/m 6,7 km/h (2 Bft) W-NW 295 1 min
20.10.2018 17:10 15,3 C 16,2 C 10,8 C 51 % 79 % 1027,8 hPa 0,0 l/m 6,1 km/h (2 Bft) S-SW 205 0 min
20.10.2018 17:05 15,3 C 16,2 C 10,8 C 51 % 79 % 1027,8 hPa 0,0 l/m 10,9 km/h (2 Bft) N-NW 330 0 min
20.10.2018 17:00 15,3 C 16,2 C 10,8 C 52 % 79 % 1027,8 hPa 0,0 l/m 7,3 km/h (2 Bft) SW 235 0 min
20.10.2018 16:55 15,2 C 16,2 C 10,8 C 52 % 79 % 1027,8 hPa 0,0 l/m 9,7 km/h (2 Bft) N 5 0 min
20.10.2018 16:50 15,4 C 16,2 C 10,8 C 51 % 79 % 1027,8 hPa 0,0 l/m 9,7 km/h (2 Bft) NO 40 4 min
20.10.2018 16:45 15,2 C 16,2 C 10,8 C 52 % 79 % 1027,8 hPa 0,0 l/m 6,1 km/h (2 Bft) NO 45 1 min
20.10.2018 16:40 15,1 C 16,2 C 10,8 C 52 % 79 % 1027,8 hPa 0,0 l/m 6,1 km/h (2 Bft) N 0 2 min
20.10.2018 16:35 15,1 C 16,2 C 10,8 C 52 % 79 % 1027,8 hPa 0,0 l/m 7,3 km/h (2 Bft) NW 305 0 min
20.10.2018 16:30 15,2 C 16,2 C 10,8 C 52 % 79 % 1026,8 hPa 0,0 l/m 4,8 km/h (1 Bft) N-NW 345 0 min
20.10.2018 16:25 15,3 C 16,2 C 10,8 C 51 % 79 % 1026,8 hPa 0,0 l/m 7,9 km/h (2 Bft) W 275 0 min
20.10.2018 16:20 15,4 C 16,2 C 10,8 C 51 % 79 % 1026,8 hPa 0,0 l/m 5,4 km/h (2 Bft) N-NO 15 0 min
20.10.2018 16:15 15,4 C 16,2 C 10,8 C 51 % 79 % 1027,8 hPa 0,0 l/m 4,8 km/h (1 Bft) W-NW 295 0 min
20.10.2018 16:10 15,4 C 16,2 C 10,8 C 51 % 79 % 1027,8 hPa 0,0 l/m 6,1 km/h (2 Bft) N-NW 340 0 min
20.10.2018 16:05 15,6 C 16,2 C 10,8 C 50 % 79 % 1027,8 hPa 0,0 l/m 9,1 km/h (2 Bft) NO 40 1 min
20.10.2018 16:00 15,8 C 16,2 C 10,8 C 50 % 79 % 1027,8 hPa 0,0 l/m 7,3 km/h (2 Bft) NW 305 1 min
20.10.2018 15:55 15,6 C 16,2 C 10,8 C 51 % 79 % 1027,8 hPa 0,0 l/m 4,8 km/h (1 Bft) W 260 0 min
20.10.2018 15:50 15,6 C 16,2 C 10,8 C 51 % 79 % 1027,8 hPa 0,0 l/m 8,5 km/h (2 Bft) N 0 0 min
20.10.2018 15:45 15,5 C 16,2 C 10,8 C 51 % 79 % 1026,8 hPa 0,0 l/m 7,9 km/h (2 Bft) NO 55 0 min
20.10.2018 15:40 15,7 C 16,2 C 10,8 C 51 % 79 % 1026,8 hPa 0,0 l/m 6,7 km/h (2 Bft) NW 320 0 min
20.10.2018 15:35 15,6 C 16,2 C 10,8 C 51 % 79 % 1026,8 hPa 0,0 l/m 6,1 km/h (2 Bft) N-NO 30 0 min
20.10.2018 15:30 15,5 C 16,2 C 10,8 C 51 % 79 % 1027,8 hPa 0,0 l/m 3,6 km/h (1 Bft) N-NW 335 0 min
20.10.2018 15:25 15,3 C 16,2 C 10,8 C 51 % 79 % 1027,8 hPa 0,0 l/m 12,1 km/h (2 Bft) N-NO 20 0 min
20.10.2018 15:20 15,4 C 16,2 C 10,8 C 50 % 79 % 1027,8 hPa 0,0 l/m 13,3 km/h (3 Bft) NO 35 0 min
20.10.2018 15:15 15,4 C 16,2 C 10,8 C 50 % 79 % 1027,8 hPa 0,0 l/m 12,1 km/h (2 Bft) W-NW 300 0 min
20.10.2018 15:10 15,6 C 16,2 C 10,8 C 50 % 79 % 1027,8 hPa 0,0 l/m 12,1 km/h (2 Bft) N 350 0 min
20.10.2018 15:05 15,6 C 16,2 C 10,8 C 50 % 79 % 1027,8 hPa 0,0 l/m 7,9 km/h (2 Bft) W-NW 285 0 min
20.10.2018 15:00 15,2 C 16,2 C 10,8 C 51 % 79 % 1028,8 hPa 0,0 l/m 4,8 km/h (1 Bft) NW 325 2 min
20.10.2018 14:55 15,3 C 16,2 C 10,8 C 51 % 79 % 1028,8 hPa 0,0 l/m 13,3 km/h (3 Bft) N-NO 30 1 min
20.10.2018 14:50 15,7 C 16,2 C 10,8 C 49 % 79 % 1028,8 hPa 0,0 l/m 12,1 km/h (2 Bft) NO 50 1 min
20.10.2018 14:45 15,5 C 16,2 C 10,8 C 49 % 79 % 1027,8 hPa 0,0 l/m 7,3 km/h (2 Bft) SO 125 0 min
20.10.2018 14:40 15,7 C 16,2 C 10,8 C 50 % 79 % 1027,8 hPa 0,0 l/m 4,8 km/h (1 Bft) N 10 0 min
20.10.2018 14:35 15,5 C 16,2 C 10,8 C 50 % 79 % 1027,8 hPa 0,0 l/m 6,7 km/h (2 Bft) N-NO 15 0 min
20.10.2018 14:30 15,5 C 16,2 C 10,8 C 50 % 79 % 1028,8 hPa 0,0 l/m 7,9 km/h (2 Bft) O 80 0 min
20.10.2018 14:25 15,5 C 16,2 C 10,8 C 50 % 79 % 1028,8 hPa 0,0 l/m 7,3 km/h (2 Bft) SW 220 1 min
20.10.2018 14:20 15,3 C 16,2 C 10,8 C 51 % 79 % 1028,8 hPa 0,0 l/m 9,1 km/h (2 Bft) N 355 0 min
20.10.2018 14:15 15,2 C 16,2 C 10,8 C 51 % 79 % 1028,8 hPa 0,0 l/m 10,9 km/h (2 Bft) NW 305 0 min
20.10.2018 14:10 15,4 C 16,2 C 10,8 C 50 % 79 % 1028,8 hPa 0,0 l/m 7,9 km/h (2 Bft) W-NW 295 1 min
20.10.2018 14:05 15,6 C 16,2 C 10,8 C 51 % 79 % 1028,8 hPa 0,0 l/m 8,5 km/h (2 Bft) N-NO 15 2 min
20.10.2018 14:00 15,5 C 16,2 C 10,8 C 51 % 79 % 1027,8 hPa 0,0 l/m 5,4 km/h (2 Bft) W-SW 255 1 min
20.10.2018 13:55 15,5 C 16,2 C 10,8 C 51 % 79 % 1027,8 hPa 0,0 l/m 9,7 km/h (2 Bft) N 10 3 min
20.10.2018 13:50 15,3 C 16,2 C 10,8 C 51 % 79 % 1027,8 hPa 0,0 l/m 12,7 km/h (3 Bft) N 10 5 min
20.10.2018 13:45 15,0 C 16,2 C 10,8 C 51 % 79 % 1028,8 hPa 0,0 l/m 16,9 km/h (3 Bft) N-NO 20 6 min
20.10.2018 13:40 15,6 C 16,2 C 10,8 C 51 % 79 % 1028,8 hPa 0,0 l/m 11,5 km/h (2 Bft) NW 310 5 min
20.10.2018 13:35 15,4 C 16,2 C 10,8 C 51 % 79 % 1028,8 hPa 0,0 l/m 9,7 km/h (2 Bft) N-NO 25 5 min
20.10.2018 13:30 14,9 C 16,2 C 10,8 C 52 % 79 % 1028,8 hPa 0,0 l/m 15,7 km/h (3 Bft) N-NW 330 5 min
20.10.2018 13:25 15,4 C 16,2 C 10,8 C 51 % 79 % 1028,8 hPa 0,0 l/m 13,3 km/h (3 Bft) N-NO 25 5 min
20.10.2018 13:20 15,7 C 16,2 C 10,8 C 52 % 79 % 1028,8 hPa 0,0 l/m 5,4 km/h (2 Bft) O 80 4 min
20.10.2018 13:15 15,5 C 16,2 C 10,8 C 55 % 79 % 1028,8 hPa 0,0 l/m 3,6 km/h (1 Bft) SW 230 6 min
20.10.2018 13:10 14,7 C 16,2 C 10,8 C 56 % 79 % 1028,8 hPa 0,0 l/m 7,3 km/h (2 Bft) W-NW 295 4 min
20.10.2018 13:05 14,9 C 16,2 C 10,8 C 55 % 79 % 1028,8 hPa 0,0 l/m 10,3 km/h (2 Bft) W-NW 300 6 min
20.10.2018 13:00 15,2 C 16,2 C 10,8 C 55 % 79 % 1028,8 hPa 0,0 l/m 6,7 km/h (2 Bft) W-NW 285 5 min
20.10.2018 12:55 14,9 C 16,2 C 10,8 C 56 % 79 % 1028,8 hPa 0,0 l/m 8,5 km/h (2 Bft) NW 315 5 min
20.10.2018 12:50 15,0 C 16,2 C 10,8 C 56 % 79 % 1028,8 hPa 0,0 l/m 6,1 km/h (2 Bft) N-NW 335 4 min
20.10.2018 12:45 15,0 C 16,2 C 10,8 C 56 % 79 % 1027,8 hPa 0,0 l/m 7,3 km/h (2 Bft) W-NW 290 6 min
20.10.2018 12:40 15,0 C 16,2 C 10,8 C 57 % 79 % 1027,8 hPa 0,0 l/m 3,6 km/h (1 Bft) NW 320 7 min
20.10.2018 12:35 14,9 C 16,2 C 10,8 C 57 % 79 % 1027,8 hPa 0,0 l/m 4,8 km/h (1 Bft) S 185 3 min
20.10.2018 12:30 14,6 C 16,2 C 10,8 C 58 % 79 % 1028,8 hPa 0,0 l/m 3,0 km/h (1 Bft) S-SW 205 5 min
20.10.2018 12:25 14,2 C 16,2 C 10,8 C 59 % 79 % 1028,8 hPa 0,0 l/m 7,3 km/h (2 Bft) N-NW 330 5 min
20.10.2018 12:20 14,2 C 16,2 C 10,8 C 59 % 79 % 1028,8 hPa 0,0 l/m 9,1 km/h (2 Bft) W-NW 290 5 min
20.10.2018 12:15 14,4 C 16,2 C 10,8 C 60 % 79 % 1029,8 hPa 0,0 l/m 2,4 km/h (1 Bft) NO 50 5 min
20.10.2018 12:10 13,8 C 16,2 C 10,8 C 61 % 79 % 1029,8 hPa 0,0 l/m 4,2 km/h (1 Bft) NO 55 5 min
20.10.2018 12:05 13,7 C 16,2 C 10,8 C 62 % 79 % 1029,8 hPa 0,0 l/m 5,4 km/h (2 Bft) N-NO 20 5 min
20.10.2018 12:00 13,6 C 16,2 C 10,8 C 63 % 79 % 1027,8 hPa 0,0 l/m 6,7 km/h (2 Bft) N 10 6 min
20.10.2018 11:55 13,4 C 16,2 C 10,8 C 63 % 79 % 1027,8 hPa 0,0 l/m 7,3 km/h (2 Bft) N-NO 20 4 min
20.10.2018 11:50 13,8 C 16,2 C 10,8 C 64 % 79 % 1027,8 hPa 0,0 l/m 6,1 km/h (2 Bft) N 5 3 min
20.10.2018 11:45 13,2 C 16,2 C 10,8 C 66 % 79 % 1028,8 hPa 0,0 l/m 4,2 km/h (1 Bft) W 270 5 min
20.10.2018 11:40 13,2 C 16,2 C 10,8 C 65 % 79 % 1028,8 hPa 0,0 l/m 2,4 km/h (1 Bft) W 280 5 min
20.10.2018 11:35 12,7 C 16,2 C 10,8 C 68 % 79 % 1028,8 hPa 0,0 l/m 1,2 km/h (1 Bft) N 10 5 min
20.10.2018 11:30 12,4 C 16,2 C 10,8 C 69 % 79 % 1028,8 hPa 0,0 l/m 3,0 km/h (1 Bft) N-NW 330 5 min
20.10.2018 11:25 12,4 C 16,2 C 10,8 C 69 % 79 % 1028,8 hPa 0,0 l/m 2,4 km/h (1 Bft) W 270 4 min
20.10.2018 11:20 12,3 C 16,2 C 10,8 C 69 % 79 % 1028,8 hPa 0,0 l/m 3,6 km/h (1 Bft) W-NW 295 5 min
20.10.2018 11:15 12,6 C 16,2 C 10,8 C 70 % 79 % 1029,8 hPa 0,0 l/m 2,4 km/h (1 Bft) SW 235 5 min
20.10.2018 11:10 12,2 C 16,2 C 10,8 C 72 % 79 % 1029,8 hPa 0,0 l/m 3,0 km/h (1 Bft) N 5 5 min
20.10.2018 11:05 11,7 C 16,2 C 10,8 C 72 % 79 % 1029,8 hPa 0,0 l/m 6,1 km/h (2 Bft) NO 35 5 min
20.10.2018 11:00 11,9 C 16,2 C 10,8 C 72 % 79 % 1028,8 hPa 0,0 l/m 2,4 km/h (1 Bft) W-NW 295 5 min
20.10.2018 10:55 11,7 C 16,2 C 10,8 C 73 % 79 % 1028,8 hPa 0,0 l/m 0,0 km/h (0 Bft) N-NW 340 3 min
20.10.2018 10:50 11,1 C 16,2 C 10,8 C 74 % 79 % 1028,8 hPa 0,0 l/m 1,2 km/h (1 Bft) NO 45 5 min
20.10.2018 10:45 10,9 C 16,2 C 10,8 C 76 % 79 % 1028,8 hPa 0,0 l/m 3,0 km/h (1 Bft) N-NO 20 5 min
20.10.2018 10:40 10,8 C 16,2 C 10,8 C 77 % 79 % 1028,8 hPa 0,0 l/m 2,4 km/h (1 Bft) N 350 6 min
20.10.2018 10:35 10,5 C 16,2 C 10,8 C 80 % 79 % 1028,8 hPa 0,0 l/m 2,4 km/h (1 Bft) NO 45 4 min
20.10.2018 10:30 9,9 C 16,2 C 10,8 C 82 % 79 % 1028,8 hPa 0,0 l/m 2,4 km/h (1 Bft) W-NW 285 6 min
20.10.2018 10:25 9,7 C 16,2 C 10,8 C 84 % 79 % 1028,8 hPa 0,0 l/m 0,6 km/h (0 Bft) W 280 4 min
20.10.2018 10:20 8,9 C 16,2 C 10,8 C 85 % 79 % 1028,9 hPa 0,0 l/m 1,2 km/h (1 Bft) N-NW 340 6 min
20.10.2018 10:15 8,6 C 16,2 C 10,8 C 86 % 79 % 1027,9 hPa 0,0 l/m 1,2 km/h (1 Bft) W-NW 295 5 min
20.10.2018 10:10 8,1 C 16,2 C 10,8 C 87 % 79 % 1027,9 hPa 0,0 l/m 0,6 km/h (0 Bft) NW 320 5 min
20.10.2018 10:05 7,7 C 16,2 C 10,8 C 88 % 79 % 1027,9 hPa 0,0 l/m 2,4 km/h (1 Bft) N-NO 25 5 min
20.10.2018 10:00 7,3 C 16,2 C 10,8 C 88 % 79 % 1028,9 hPa 0,0 l/m 0,6 km/h (0 Bft) W-NW 290 2 min
20.10.2018 09:55 6,9 C 16,2 C 10,8 C 88 % 79 % 1028,9 hPa 0,0 l/m 3,6 km/h (1 Bft) N-NO 20 0 min
20.10.2018 09:50 6,8 C 16,2 C 10,8 C 88 % 79 % 1028,9 hPa 0,0 l/m 3,0 km/h (1 Bft) N 355 0 min
20.10.2018 09:45 6,7 C 16,2 C 10,8 C 88 % 79 % 1028,9 hPa 0,0 l/m 3,0 km/h (1 Bft) N 10 0 min
20.10.2018 09:40 6,6 C 16,2 C 10,8 C 88 % 79 % 1028,9 hPa 0,0 l/m 5,4 km/h (2 Bft) N-NO 25 0 min
20.10.2018 09:35 6,7 C 16,2 C 10,8 C 89 % 79 % 1028,9 hPa 0,0 l/m 3,6 km/h (1 Bft) NO 35 0 min
20.10.2018 09:30 6,7 C 16,2 C 10,8 C 89 % 79 % 1026,9 hPa 0,0 l/m 1,2 km/h (1 Bft) N-NO 15 0 min
20.10.2018 09:25 6,6 C 16,2 C 10,8 C 89 % 79 % 1026,9 hPa 0,0 l/m 2,4 km/h (1 Bft) N 355 0 min
20.10.2018 09:20 6,5 C 16,2 C 10,8 C 89 % 79 % 1026,9 hPa 0,0 l/m 1,2 km/h (1 Bft) N-NW 345 0 min
20.10.2018 09:15 6,5 C 16,2 C 10,8 C 89 % 79 % 1028,9 hPa 0,0 l/m 1,8 km/h (1 Bft) NW 305 0 min
20.10.2018 09:10 6,4 C 16,2 C 10,8 C 89 % 79 % 1028,9 hPa 0,0 l/m 5,4 km/h (2 Bft) N-NO 25 0 min
20.10.2018 09:05 6,4 C 16,2 C 10,8 C 89 % 79 % 1028,9 hPa 0,0 l/m 6,7 km/h (2 Bft) N-NO 25 0 min
20.10.2018 09:00 6,3 C 16,2 C 10,8 C 89 % 79 % 1027,9 hPa 0,0 l/m 5,4 km/h (2 Bft) N-NO 30 0 min
20.10.2018 08:55 6,2 C 16,2 C 10,8 C 90 % 79 % 1027,9 hPa 0,0 l/m 6,1 km/h (2 Bft) N 10 0 min
20.10.2018 08:50 6,2 C 16,2 C 10,8 C 90 % 79 % 1027,9 hPa 0,0 l/m 4,8 km/h (1 Bft) N-NO 15 0 min
20.10.2018 08:45 6,2 C 16,2 C 10,8 C 90 % 79 % 1027,9 hPa 0,0 l/m 3,0 km/h (1 Bft) N-NO 20 0 min
20.10.2018 08:40 6,1 C 16,2 C 10,8 C 90 % 79 % 1027,9 hPa 0,0 l/m 1,8 km/h (1 Bft) O 90 0 min
20.10.2018 08:35 6,1 C 16,2 C 10,8 C 90 % 79 % 1027,9 hPa 0,0 l/m 4,8 km/h (1 Bft) N-NW 340 0 min
20.10.2018 08:30 6,1 C 16,2 C 10,8 C 90 % 79 % 1026,9 hPa 0,0 l/m 3,6 km/h (1 Bft) NO 35 0 min
20.10.2018 08:25 6,0 C 16,2 C 10,8 C 90 % 79 % 1026,9 hPa 0,0 l/m 4,8 km/h (1 Bft) N-NW 335 0 min
20.10.2018 08:20 6,0 C 16,2 C 10,8 C 90 % 79 % 1026,9 hPa 0,0 l/m 6,1 km/h (2 Bft) NO 40 0 min
20.10.2018 08:15 6,0 C 16,2 C 10,8 C 90 % 79 % 1026,9 hPa 0,0 l/m 6,1 km/h (2 Bft) N 350 0 min
20.10.2018 08:10 6,0 C 16,2 C 10,8 C 90 % 79 % 1026,9 hPa 0,0 l/m 2,4 km/h (1 Bft) N 10 0 min
20.10.2018 08:05 5,9 C 16,2 C 10,8 C 90 % 79 % 1026,9 hPa 0,0 l/m 3,6 km/h (1 Bft) N-NO 30 0 min
20.10.2018 08:00 5,9 C 16,2 C 10,8 C 90 % 79 % 1026,9 hPa 0,0 l/m 1,2 km/h (1 Bft) N 10 0 min
20.10.2018 07:55 5,9 C 16,2 C 10,8 C 90 % 79 % 1026,9 hPa 0,0 l/m 1,2 km/h (1 Bft) W-NW 285 0 min
20.10.2018 07:50 6,0 C 16,2 C 10,8 C 90 % 79 % 1026,9 hPa 0,0 l/m 0,0 km/h (0 Bft) N-NO 15 0 min
20.10.2018 07:45 6,0 C 16,2 C 10,8 C 90 % 79 % 1026,9 hPa 0,0 l/m 0,0 km/h (0 Bft) N-NO 30 0 min
20.10.2018 07:40 6,1 C 16,2 C 10,8 C 90 % 79 % 1026,9 hPa 0,0 l/m 1,8 km/h (1 Bft) NW 325 0 min
20.10.2018 07:35 6,2 C 16,2 C 10,8 C 90 % 79 % 1026,9 hPa 0,0 l/m 2,4 km/h (1 Bft) O-NO 60 0 min
20.10.2018 07:30 6,1 C 16,2 C 10,8 C 90 % 79 % 1026,9 hPa 0,0 l/m 1,2 km/h (1 Bft) N 350 0 min
20.10.2018 07:25 6,1 C 16,2 C 10,8 C 90 % 79 % 1026,9 hPa 0,0 l/m 0,0 km/h (0 Bft) NO 35 0 min
20.10.2018 07:20 6,0 C 16,2 C 10,8 C 89 % 79 % 1026,9 hPa 0,0 l/m 2,4 km/h (1 Bft) N-NO 30 0 min
20.10.2018 07:15 5,8 C 16,2 C 10,8 C 89 % 79 % 1026,9 hPa 0,0 l/m 0,0 km/h (0 Bft) N 355 0 min
20.10.2018 07:10 5,8 C 16,2 C 10,8 C 89 % 79 % 1026,9 hPa 0,0 l/m 0,0 km/h (0 Bft) W 275 0 min
20.10.2018 07:05 6,0 C 16,2 C 10,8 C 89 % 79 % 1026,9 hPa 0,0 l/m 1,2 km/h (1 Bft) W-NW 285 0 min
20.10.2018 07:00 6,0 C 16,2 C 10,8 C 89 % 79 % 1025,9 hPa 0,0 l/m 0,6 km/h (0 Bft) NW 310 0 min
20.10.2018 06:55 6,2 C 16,2 C 10,8 C 89 % 79 % 1025,9 hPa 0,0 l/m 2,4 km/h (1 Bft) N 10 0 min
20.10.2018 06:50 6,2 C 16,2 C 10,8 C 89 % 79 % 1025,9 hPa 0,0 l/m 2,4 km/h (1 Bft) N-NO 15 0 min
20.10.2018 06:45 6,3 C 16,2 C 10,8 C 89 % 79 % 1026,9 hPa 0,0 l/m 0,6 km/h (0 Bft) N-NO 30 0 min
20.10.2018 06:40 6,3 C 16,2 C 10,8 C 89 % 79 % 1026,9 hPa 0,0 l/m 0,0 km/h (0 Bft) N 355 0 min
20.10.2018 06:35 6,3 C 16,2 C 10,8 C 89 % 79 % 1026,9 hPa 0,0 l/m 2,4 km/h (1 Bft) N 10 0 min
20.10.2018 06:30 6,4 C 16,2 C 10,8 C 89 % 79 % 1025,9 hPa 0,0 l/m 0,0 km/h (0 Bft) N 5 0 min
20.10.2018 06:25 6,5 C 16,2 C 10,8 C 89 % 79 % 1025,9 hPa 0,0 l/m 0,6 km/h (0 Bft) W-NW 285 0 min
20.10.2018 06:20 6,5 C 16,2 C 10,8 C 89 % 79 % 1025,9 hPa 0,0 l/m 1,8 km/h (1 Bft) NW 325 0 min
20.10.2018 06:15 6,5 C 16,2 C 10,8 C 89 % 79 % 1024,9 hPa 0,0 l/m 1,2 km/h (1 Bft) N 5 0 min
20.10.2018 06:10 6,6 C 16,2 C 10,8 C 89 % 79 % 1024,9 hPa 0,0 l/m 1,2 km/h (1 Bft) N 5 0 min
20.10.2018 06:05 6,6 C 16,2 C 10,8 C 89 % 79 % 1024,9 hPa 0,0 l/m 2,4 km/h (1 Bft) N-NO 20 0 min
20.10.2018 06:00 6,7 C 16,2 C 10,8 C 89 % 79 % 1025,9 hPa 0,0 l/m 3,0 km/h (1 Bft) N-NO 25 0 min
20.10.2018 05:55 6,7 C 16,2 C 10,8 C 89 % 79 % 1025,9 hPa 0,0 l/m 3,6 km/h (1 Bft) N-NO 20 0 min
20.10.2018 05:50 6,7 C 16,2 C 10,8 C 89 % 79 % 1025,9 hPa 0,0 l/m 2,4 km/h (1 Bft) N-NO 30 0 min
20.10.2018 05:45 6,6 C 16,2 C 10,8 C 89 % 79 % 1024,9 hPa 0,0 l/m 0,0 km/h (0 Bft) N-NO 25 0 min
20.10.2018 05:40 6,4 C 16,2 C 10,8 C 89 % 79 % 1024,9 hPa 0,0 l/m 0,0 km/h (0 Bft) N 10 0 min
20.10.2018 05:35 6,2 C 16,2 C 10,8 C 88 % 79 % 1024,9 hPa 0,0 l/m 0,0 km/h (0 Bft) N 5 0 min
20.10.2018 05:30 6,0 C 16,2 C 10,8 C 88 % 79 % 1024,9 hPa 0,0 l/m 0,0 km/h (0 Bft) N-NO 25 0 min
20.10.2018 05:25 6,0 C 16,2 C 10,8 C 88 % 79 % 1024,9 hPa 0,0 l/m 0,0 km/h (0 Bft) N-NO 15 0 min
20.10.2018 05:20 6,1 C 16,2 C 10,8 C 88 % 79 % 1024,9 hPa 0,0 l/m 0,0 km/h (0 Bft) W-NW 295 0 min
20.10.2018 05:15 6,3 C 16,2 C 10,8 C 88 % 79 % 1024,9 hPa 0,0 l/m 0,6 km/h (0 Bft) W 265 0 min
20.10.2018 05:10 6,3 C 16,2 C 10,8 C 88 % 79 % 1024,9 hPa 0,0 l/m 0,0 km/h (0 Bft) SO 130 0 min
20.10.2018 05:05 6,4 C 16,2 C 10,8 C 87 % 79 % 1024,9 hPa 0,0 l/m 0,0 km/h (0 Bft) SO 140 0 min
20.10.2018 05:00 6,5 C 16,2 C 10,8 C 87 % 79 % 1025,9 hPa 0,0 l/m 0,0 km/h (0 Bft) SO 145 0 min
20.10.2018 04:55 6,7 C 16,2 C 10,8 C 87 % 79 % 1025,9 hPa 0,0 l/m 0,0 km/h (0 Bft) NW 305 0 min
20.10.2018 04:50 6,8 C 16,2 C 10,8 C 87 % 79 % 1025,9 hPa 0,0 l/m 0,0 km/h (0 Bft) N-NW 335 0 min
20.10.2018 04:45 6,9 C 16,2 C 10,8 C 87 % 79 % 1025,9 hPa 0,0 l/m 0,0 km/h (0 Bft) O-NO 65 0 min
20.10.2018 04:40 7,0 C 16,2 C 10,8 C 87 % 79 % 1025,9 hPa 0,0 l/m 1,2 km/h (1 Bft) NO 45 0 min
20.10.2018 04:35 7,0 C 16,2 C 10,8 C 87 % 79 % 1025,9 hPa 0,0 l/m 1,2 km/h (1 Bft) W-NW 295 0 min
20.10.2018 04:30 7,1 C 16,2 C 10,8 C 87 % 79 % 1025,9 hPa 0,0 l/m 2,4 km/h (1 Bft) N-NO 30 0 min
20.10.2018 04:25 7,2 C 16,2 C 10,8 C 87 % 79 % 1025,9 hPa 0,0 l/m 2,4 km/h (1 Bft) N 10 0 min
20.10.2018 04:20 7,2 C 16,2 C 10,8 C 87 % 79 % 1025,9 hPa 0,0 l/m 1,2 km/h (1 Bft) N 355 0 min
20.10.2018 04:15 7,3 C 16,2 C 10,8 C 87 % 79 % 1025,9 hPa 0,0 l/m 1,8 km/h (1 Bft) NW 320 0 min
20.10.2018 04:10 7,2 C 16,2 C 10,8 C 87 % 79 % 1025,9 hPa 0,0 l/m 2,4 km/h (1 Bft) N-NO 15 0 min
20.10.2018 04:05 7,2 C 16,2 C 10,8 C 87 % 79 % 1025,9 hPa 0,0 l/m 1,2 km/h (1 Bft) NO 35 0 min
20.10.2018 04:00 7,2 C 16,2 C 10,8 C 86 % 79 % 1025,9 hPa 0,0 l/m 5,4 km/h (2 Bft) N 5 0 min
20.10.2018 03:55 7,3 C 16,2 C 10,8 C 86 % 79 % 1025,9 hPa 0,0 l/m 3,0 km/h (1 Bft) SO 135 0 min
20.10.2018 03:50 7,3 C 16,2 C 10,8 C 86 % 79 % 1025,9 hPa 0,0 l/m 3,6 km/h (1 Bft) N 0 0 min
20.10.2018 03:45 7,4 C 16,2 C 10,8 C 86 % 79 % 1024,9 hPa 0,0 l/m 4,2 km/h (1 Bft) N-NO 30 0 min
20.10.2018 03:40 7,4 C 16,2 C 10,8 C 86 % 79 % 1024,9 hPa 0,0 l/m 4,8 km/h (1 Bft) N 10 0 min
20.10.2018 03:35 7,3 C 16,2 C 10,8 C 86 % 79 % 1024,9 hPa 0,0 l/m 5,4 km/h (2 Bft) NO 40 0 min
20.10.2018 03:30 7,4 C 16,2 C 10,8 C 86 % 79 % 1024,9 hPa 0,0 l/m 2,4 km/h (1 Bft) N-NW 340 0 min
20.10.2018 03:25 7,5 C 16,2 C 10,8 C 86 % 79 % 1024,9 hPa 0,0 l/m 3,0 km/h (1 Bft) N 350 0 min
20.10.2018 03:20 7,5 C 16,2 C 10,8 C 86 % 79 % 1024,9 hPa 0,0 l/m 3,0 km/h (1 Bft) N 0 0 min
20.10.2018 03:15 7,5 C 16,2 C 10,8 C 85 % 79 % 1024,9 hPa 0,0 l/m 1,8 km/h (1 Bft) N-NO 15 0 min
20.10.2018 03:10 7,6 C 16,2 C 10,8 C 85 % 79 % 1024,9 hPa 0,0 l/m 6,1 km/h (2 Bft) N-NO 25 0 min
20.10.2018 03:05 7,5 C 16,2 C 10,8 C 85 % 79 % 1024,9 hPa 0,0 l/m 5,4 km/h (2 Bft) NW 315 0 min
20.10.2018 03:00 7,6 C 16,2 C 10,8 C 85 % 79 % 1024,9 hPa 0,0 l/m 3,0 km/h (1 Bft) N-NO 20 0 min
20.10.2018 02:55 7,7 C 16,2 C 10,8 C 84 % 79 % 1024,9 hPa 0,0 l/m 4,8 km/h (1 Bft) NW 310 0 min
20.10.2018 02:50 7,7 C 16,2 C 10,8 C 84 % 79 % 1024,9 hPa 0,0 l/m 3,6 km/h (1 Bft) N-NW 335 0 min
20.10.2018 02:45 7,8 C 16,2 C 10,8 C 84 % 79 % 1024,9 hPa 0,0 l/m 4,8 km/h (1 Bft) N-NW 345 0 min
20.10.2018 02:40 7,8 C 16,2 C 10,8 C 84 % 79 % 1024,9 hPa 0,0 l/m 3,0 km/h (1 Bft) N-NO 20 0 min
20.10.2018 02:35 7,9 C 16,2 C 10,8 C 84 % 79 % 1024,9 hPa 0,0 l/m 3,0 km/h (1 Bft) N 355 0 min
20.10.2018 02:30 8,0 C 16,2 C 10,8 C 84 % 79 % 1024,9 hPa 0,0 l/m 3,0 km/h (1 Bft) N 10 0 min
20.10.2018 02:25 8,0 C 16,2 C 10,8 C 84 % 79 % 1024,9 hPa 0,0 l/m 6,1 km/h (2 Bft) N-NO 30 0 min
20.10.2018 02:20 8,0 C 16,2 C 10,8 C 84 % 79 % 1024,9 hPa 0,0 l/m 6,1 km/h (2 Bft) N-NO 20 0 min
20.10.2018 02:15 8,1 C 16,2 C 10,8 C 84 % 79 % 1023,8 hPa 0,0 l/m 4,8 km/h (1 Bft) N 355 0 min
20.10.2018 02:10 8,1 C 16,2 C 10,8 C 84 % 79 % 1023,8 hPa 0,0 l/m 1,8 km/h (1 Bft) NO 35 0 min
20.10.2018 02:05 8,2 C 16,2 C 10,8 C 84 % 79 % 1023,8 hPa 0,0 l/m 1,8 km/h (1 Bft) W-NW 290 0 min
20.10.2018 02:00 8,3 C 16,2 C 10,8 C 84 % 79 % 1024,8 hPa 0,0 l/m 1,2 km/h (1 Bft) W 275 0 min
20.10.2018 01:55 8,4 C 16,2 C 10,8 C 83 % 79 % 1024,8 hPa 0,0 l/m 1,2 km/h (1 Bft) N-NO 15 0 min
20.10.2018 01:50 8,4 C 16,2 C 10,8 C 83 % 79 % 1024,8 hPa 0,0 l/m 3,0 km/h (1 Bft) N-NO 15 0 min
20.10.2018 01:45 8,5 C 16,2 C 10,8 C 83 % 79 % 1024,8 hPa 0,0 l/m 1,8 km/h (1 Bft) N 355 0 min
20.10.2018 01:40 8,5 C 16,2 C 10,8 C 83 % 79 % 1024,8 hPa 0,0 l/m 3,0 km/h (1 Bft) N-NW 345 0 min
20.10.2018 01:35 8,6 C 16,2 C 10,8 C 83 % 79 % 1024,8 hPa 0,0 l/m 3,0 km/h (1 Bft) N-NO 20 0 min
20.10.2018 01:30 8,6 C 16,2 C 10,8 C 83 % 79 % 1024,8 hPa 0,0 l/m 0,0 km/h (0 Bft) N-NO 25 0 min
20.10.2018 01:25 8,8 C 16,2 C 10,8 C 83 % 79 % 1024,8 hPa 0,0 l/m 2,4 km/h (1 Bft) N-NO 30 0 min
20.10.2018 01:20 8,7 C 16,2 C 10,8 C 82 % 79 % 1024,8 hPa 0,0 l/m 1,8 km/h (1 Bft) N 5 0 min
20.10.2018 01:15 8,8 C 16,2 C 10,8 C 82 % 79 % 1024,8 hPa 0,0 l/m 0,0 km/h (0 Bft) SO 135 0 min
20.10.2018 01:10 9,0 C 16,2 C 10,8 C 82 % 79 % 1024,8 hPa 0,0 l/m 3,0 km/h (1 Bft) NO 45 0 min
20.10.2018 01:05 9,0 C 16,2 C 10,8 C 82 % 79 % 1024,8 hPa 0,0 l/m 1,2 km/h (1 Bft) N 5 0 min
20.10.2018 01:00 9,0 C 16,2 C 10,8 C 82 % 79 % 1023,8 hPa 0,0 l/m 1,2 km/h (1 Bft) O-NO 70 0 min
20.10.2018 00:55 9,1 C 16,2 C 10,8 C 81 % 79 % 1023,8 hPa 0,0 l/m 1,8 km/h (1 Bft) N-NW 340 0 min
20.10.2018 00:50 9,1 C 16,2 C 10,8 C 81 % 79 % 1023,8 hPa 0,0 l/m 1,8 km/h (1 Bft) NO 40 0 min
20.10.2018 00:45 9,2 C 16,2 C 10,8 C 81 % 79 % 1023,8 hPa 0,0 l/m 2,4 km/h (1 Bft) N-NO 15 0 min
20.10.2018 00:40 9,3 C 16,2 C 10,8 C 81 % 79 % 1023,8 hPa 0,0 l/m 2,4 km/h (1 Bft) NO 45 0 min
20.10.2018 00:35 9,3 C 16,2 C 10,8 C 81 % 79 % 1023,8 hPa 0,0 l/m 3,6 km/h (1 Bft) N 5 0 min
20.10.2018 00:30 9,3 C 16,2 C 10,8 C 80 % 79 % 1023,8 hPa 0,0 l/m 5,4 km/h (2 Bft) O-NO 60 0 min
20.10.2018 00:25 9,4 C 16,2 C 10,8 C 80 % 79 % 1023,8 hPa 0,0 l/m 4,8 km/h (1 Bft) N 10 0 min
20.10.2018 00:20 9,4 C 16,2 C 10,8 C 80 % 79 % 1023,8 hPa 0,0 l/m 5,4 km/h (2 Bft) NO 45 0 min
20.10.2018 00:15 9,5 C 16,2 C 10,8 C 80 % 79 % 1023,8 hPa 0,0 l/m 4,8 km/h (1 Bft) N 0 0 min
20.10.2018 00:10 9,6 C 16,2 C 10,8 C 79 % 79 % 1023,8 hPa 0,0 l/m 4,8 km/h (1 Bft) N 10 0 min
20.10.2018 00:05 9,8 C 16,2 C 10,8 C 79 % 79 % 1023,8 hPa 0,0 l/m 3,6 km/h (1 Bft) NW 325 0 min
20.10.2018 00:00 9,9 C 16,2 C 10,8 C 79 % 79 % 1022,8 hPa 0,0 l/m 3,6 km/h (1 Bft) W-NW 300 0 min
_ Min-Zeit 07:10 00:00 00:00 14:45 00:00 00:00 - 01:15 - - -
Minimum _ 5,8 C 16,2 C 10,8 C 49 % 79 % 1022,8 hPa - 0,0 km/h (0 Bft) - - -
_ Max-Zeit 16:00 00:00 00:00 07:25 00:00 11:05 00:00 13:45 - - 12:40
Maximum _ 15,8 C 16,2 C 10,8 C 90 % 79 % 1029,8 hPa 0,0 l/m 16,9 km/h
N-NO (3 Bft)
- - 7 min
Durchschnitt _ 10,6 C 16,2 C 10,8 C 72 % 79 % 1027,1 hPa #0,0 l/m 3,8 km/h (1 Bft) N-NO - #4:11 h